Weather reports worldwide

Advertisment
Wittmund, Germany (10126): temperature & dewpoint: 13.08.2019 00:00:00 - 19.08.2019 00:00:00 (CEST)Wittmund, Germany (10126): wind speed & gusts: 13.08.2019 00:00:00 - 19.08.2019 00:00:00 (CEST)Wittmund, Germany (10126): wind direction: 13.08.2019 00:00:00 - 19.08.2019 00:00:00 (CEST)Wittmund, Germany (10126): reduced air pressure: 13.08.2019 00:00:00 - 19.08.2019 00:00:00 (CEST)Wittmund, Germany (10126): visibility: 13.08.2019 00:00:00 - 19.08.2019 00:00:00 (CEST)
Date & Time tt [°C] td [°C] ff [km/h] ff [kn] fx [km/h] fx [kn] dd ppp [hPa] vv [km]
19.08.2019 00:00:00 15,1 13,4 7 4 - - SSW 1008,2 20
18.08.2019 23:00:00 15,0 13,3 11 6 - - SSW 1007,9 30
18.08.2019 22:00:00 16,0 13,8 11 6 - - SSW 1007,6 30
18.08.2019 21:00:00 16,6 13,4 7 4 - - SSW 1006,7 30
18.08.2019 20:00:00 18,3 12,7 11 6 - - WSW 1006,0 40
18.08.2019 19:00:00 18,5 12,0 18 10 - - WSW 1005,8 40
18.08.2019 18:00:00 18,7 13,6 18 10 - - SW 1005,3 40
18.08.2019 17:00:00 18,7 12,5 18 10 - - WSW 1004,9 40
18.08.2019 16:00:00 19,0 12,5 18 10 - - SW 1004,5 25
18.08.2019 15:00:00 18,6 13,1 18 10 - - SSW 1003,8 25
18.08.2019 14:00:00 17,4 14,2 18 10 - - S 1003,9 17
18.08.2019 13:00:00 16,4 13,4 18 10 - - SSW 1004,4 12
18.08.2019 12:00:00 16,4 13,7 14 8 - - S 1004,4 15
18.08.2019 11:00:00 16,3 14,9 18 10 - - S 1004,3 8
18.08.2019 10:00:00 15,9 15,1 14 8 - - S 1004,5 7
18.08.2019 09:00:00 15,4 14,6 11 6 - - S 1004,8 7
18.08.2019 08:00:00 15,1 14,1 4 2 - - S 1004,8 8
18.08.2019 07:00:00 14,9 14,1 7 4 - - S 1004,8 8
18.08.2019 06:00:00 14,9 14,3 11 6 - - S 1005,2 8
18.08.2019 05:00:00 15,2 14,6 7 4 - - S 1005,1 8
18.08.2019 04:00:00 15,3 14,6 7 4 - - SSW 1005,6 10
18.08.2019 03:00:00 15,5 14,9 7 4 - - SSW 1006,0 9
18.08.2019 02:00:00 15,3 14,7 11 6 - - SSW 1006,1 12
18.08.2019 01:00:00 15,7 14,9 7 4 - - SSW 1006,0 20
18.08.2019 00:00:00 15,9 14,9 7 4 - - SW 1005,8 30
17.08.2019 23:00:00 16,3 15,2 11 6 - - SSW 1005,8 30
17.08.2019 22:00:00 16,8 15,0 14 8 - - SSW 1005,7 30
17.08.2019 21:00:00 17,6 15,8 18 10 - - SSW 1005,2 30
17.08.2019 20:00:00 18,7 15,3 18 10 - - SSW 1005,4 30
17.08.2019 19:00:00 20,6 16,3 22 12 - - SSW 1005,5 30
17.08.2019 18:00:00 21,6 16,1 22 12 - - SSW 1005,4 30
17.08.2019 17:00:00 21,8 16,0 22 12 - - SSW 1005,2 30
17.08.2019 16:00:00 20,8 16,2 25 14 - - SSW 1005,3 10
17.08.2019 15:00:00 20,0 16,4 25 14 - - SSW 1005,5 10
17.08.2019 14:00:00 18,5 16,0 22 12 - - SSW 1005,6 10
17.08.2019 13:00:00 18,0 15,9 22 12 - - SSW 1005,6 10
17.08.2019 12:00:00 17,5 15,9 18 10 - - SSW 1005,4 10
17.08.2019 11:00:00 16,9 15,5 16 9 - - SSW 1005,2 8
17.08.2019 10:00:00 17,2 14,7 22 12 - - SSW 1005,4 15
17.08.2019 09:00:00 16,8 14,8 14 8 - - S 1005,3 20
17.08.2019 08:00:00 15,8 14,4 18 10 - - S 1005,4 10
17.08.2019 07:00:00 15,9 13,9 14 8 - - S 1005,7 9
17.08.2019 06:00:00 15,9 14,0 18 10 - - S 1006,0 12
17.08.2019 05:00:00 15,6 13,8 11 6 - - S 1006,4 12
17.08.2019 04:00:00 15,8 13,6 14 8 - - S 1007,4 15
17.08.2019 03:00:00 16,1 13,6 14 8 - - S 1008,1 12
17.08.2019 02:00:00 16,7 13,3 14 8 - - S 1008,9 15
17.08.2019 01:00:00 17,3 13,0 14 8 - - S 1009,6 15
17.08.2019 00:00:00 17,4 12,7 14 8 - - S 1010,5 20
16.08.2019 23:00:00 17,8 12,8 11 6 - - S 1011,0 25
16.08.2019 22:00:00 18,3 12,3 11 6 - - SSE 1011,5 30
16.08.2019 21:00:00 18,9 12,1 7 4 - - S 1011,7 30
16.08.2019 20:00:00 19,9 12,1 11 6 - - SSW 1011,9 40
16.08.2019 19:00:00 20,7 11,5 14 8 - - SSW 1012,2 40
16.08.2019 18:00:00 20,5 10,9 14 8 - - SSW 1012,6 40
16.08.2019 17:00:00 20,9 10,1 18 10 - - SSW 1013,2 40
16.08.2019 16:00:00 21,2 9,7 18 10 - - SW 1013,6 40
16.08.2019 15:00:00 20,7 9,0 18 10 - - SW 1014,2 40
16.08.2019 14:00:00 21,0 9,8 22 12 - - WSW 1014,5 35
16.08.2019 13:00:00 19,7 11,2 14 8 - - WSW 1014,7 35
16.08.2019 12:00:00 19,2 11,0 14 8 - - SSW 1015,2 35
16.08.2019 11:00:00 18,0 12,3 7 4 - - W 1015,2 35
16.08.2019 10:00:00 17,8 13,7 11 6 - - WSW 1015,2 35
16.08.2019 09:00:00 16,8 13,5 11 6 - - WSW 1015,2 35
16.08.2019 08:00:00 15,5 13,8 7 4 - - SW 1014,8 30
16.08.2019 07:00:00 14,5 13,7 11 6 - - SW 1014,4 30
16.08.2019 06:00:00 14,4 13,4 11 6 - - SW 1013,9 20
16.08.2019 05:00:00 15,0 14,0 15 8 - - W 1013,5 7
16.08.2019 04:00:00 15,4 14,3 7 4 - - WSW 1013,0 20
16.08.2019 03:00:00 15,5 14,3 11 6 - - SW 1012,9 20
16.08.2019 02:00:00 15,8 14,0 11 6 - - WSW 1012,6 20
16.08.2019 01:00:00 16,3 14,3 11 6 - - WSW 1012,4 20
16.08.2019 00:00:00 16,5 14,5 14 8 - - W 1012,1 20
15.08.2019 23:00:00 16,8 14,6 11 6 - - WSW 1011,5 20
15.08.2019 22:00:00 16,7 14,1 11 6 - - WSW 1010,8 20
15.08.2019 21:00:00 17,4 14,0 18 10 - - WSW 1010,1 20
15.08.2019 20:00:00 18,0 14,4 22 12 - - W 1009,3 30
15.08.2019 19:00:00 18,9 14,0 29 16 50 27 W 1008,6 30
15.08.2019 18:00:00 19,8 13,0 36 19 50 27 W 1008,2 25
15.08.2019 17:00:00 19,9 13,3 29 16 - - W 1007,6 25
15.08.2019 16:00:00 20,2 13,7 36 19 54 29 W 1006,9 25
15.08.2019 15:00:00 18,9 15,9 32 18 - - W 1006,4 20
15.08.2019 14:00:00 18,2 16,4 14 8 - - SW 1006,0 7
15.08.2019 13:00:00 18,3 16,7 18 10 - - SW 1005,5 12
15.08.2019 12:00:00 16,9 15,8 18 10 - - SSW 1005,5 8
15.08.2019 11:00:00 16,9 15,4 18 10 - - SSW 1005,4 6
15.08.2019 10:00:00 16,3 15,2 14 8 - - S 1005,7 10
15.08.2019 09:00:00 15,4 14,6 18 10 - - S 1006,0 4,0
15.08.2019 08:00:00 14,9 14,2 16 9 - - S 1006,3 5
15.08.2019 07:00:00 14,4 13,6 14 8 - - S 1006,7 4,0
15.08.2019 06:00:00 13,9 12,7 16 9 - - S 1007,2 4,0
15.08.2019 05:00:00 13,8 12,8 18 10 - - SSE 1008,0 8
15.08.2019 04:00:00 13,8 12,5 14 8 - - SSE 1009,2 8
15.08.2019 03:00:00 14,0 12,5 7 4 - - SE 1010,3 8
15.08.2019 02:00:00 14,4 12,6 7 4 - - SSE 1011,4 8
15.08.2019 01:00:00 14,9 12,1 7 4 - - S 1012,1 10
15.08.2019 00:00:00 15,6 11,6 11 6 - - S 1012,6 20
14.08.2019 23:00:00 15,3 11,5 11 6 - - SE 1012,8 20
14.08.2019 22:00:00 15,1 12,6 11 6 - - ESE 1013,3 20
14.08.2019 21:00:00 15,2 12,9 11 6 - - ESE 1013,5 20
14.08.2019 20:00:00 15,3 13,1 11 6 - - E 1014,2 25
14.08.2019 19:00:00 15,7 13,5 4 2 - - N 1014,9 25
14.08.2019 18:00:00 15,6 13,1 7 4 - - ENE 1015,1 25
14.08.2019 17:00:00 14,6 12,7 7 4 - - NNE 1015,4 25
14.08.2019 16:00:00 16,6 10,8 16 9 - - W 1016,1 7
14.08.2019 15:00:00 20,3 6,6 18 10 - - SW 1015,4 30
14.08.2019 14:00:00 19,9 7,4 22 12 - - WSW 1015,7 40
14.08.2019 13:00:00 19,1 9,2 18 10 - - SW 1016,0 40
14.08.2019 12:00:00 17,5 9,6 7 4 - - WNW 1016,4 40
14.08.2019 11:00:00 16,7 9,8 11 6 - - SW 1016,8 40
14.08.2019 10:00:00 14,4 8,5 14 8 - - WNW 1016,8 30
14.08.2019 09:00:00 14,1 11,0 11 6 - - WSW 1016,7 30
14.08.2019 08:00:00 11,0 9,3 11 6 - - SW 1016,3 20
14.08.2019 07:00:00 9,9 8,8 7 4 - - SSW 1016,0 15
14.08.2019 06:00:00 9,8 8,9 7 4 - - SW 1015,9 12
14.08.2019 05:00:00 10,8 9,8 7 4 - - SW 1015,8 10
14.08.2019 04:00:00 10,3 9,4 11 6 - - SW 1015,8 10
14.08.2019 03:00:00 10,6 9,7 7 4 - - SW 1015,6 10
14.08.2019 02:00:00 10,4 9,5 7 4 - - SW 1015,7 30
14.08.2019 01:00:00 11,1 9,9 11 6 - - SW 1015,6 30
14.08.2019 00:00:00 11,0 9,5 11 6 - - SW 1015,7 30
13.08.2019 23:00:00 11,3 10,0 11 6 - - SSW 1015,9 30
13.08.2019 22:00:00 11,5 10,1 7 4 - - S 1015,9 30
13.08.2019 21:00:00 12,7 10,7 7 4 - - S 1016,1 30
13.08.2019 20:00:00 12,8 10,6 11 6 - - SSW 1016,0 30
13.08.2019 19:00:00 15,2 8,3 18 10 - - SW 1015,7 30
13.08.2019 18:00:00 17,7 6,9 18 10 - - W 1015,3 30
13.08.2019 17:00:00 18,0 9,1 18 10 - - SW 1015,2 30
13.08.2019 16:00:00 17,3 10,5 14 8 - - SW 1015,5 30
13.08.2019 15:00:00 13,6 10,6 11 6 - - SSW 1015,6 20
13.08.2019 14:00:00 15,9 9,8 18 10 - - W 1015,5 10
13.08.2019 13:00:00 16,2 10,7 18 10 - - W 1015,3 35
13.08.2019 12:00:00 14,0 9,9 11 6 - - W 1014,9 30
13.08.2019 11:00:00 13,2 11,7 14 8 - - W 1014,7 15
13.08.2019 10:00:00 13,8 12,5 11 6 - - WSW 1014,2 10
13.08.2019 09:00:00 13,9 12,4 11 6 - - W 1013,6 12
13.08.2019 08:00:00 14,0 11,6 14 8 - - W 1013,0 30
13.08.2019 07:00:00 12,9 11,7 11 6 - - SSW 1012,7 30
13.08.2019 06:00:00 13,0 11,5 7 4 - - SSW 1012,7 30
13.08.2019 05:00:00 13,1 11,7 4 2 - - N 1012,8 30
13.08.2019 04:00:00 12,6 11,2 7 4 - - SW 1013,0 30
13.08.2019 03:00:00 13,3 11,5 11 6 - - SW 1012,9 30
13.08.2019 02:00:00 13,2 11,6 11 6 - - SW 1012,9 20
13.08.2019 01:00:00 14,0 11,8 11 6 - - SW 1013,3 20
13.08.2019 00:00:00 14,7 11,9 7 4 - - SW 1013,3 20

tt = temperature
td = dewpoint
ff = wind speed
fx = gusts
dd = wind direction
ppp = reduced air pressure
vv = visibility

Next stations